STARLINK-4684, 53595

Orbit data source: Space-Track

STARLINK-4684, 53595 is a payload satellite owned by SpaceX/Seattle (US) in LEO that was launched on Sun, 28 Aug 2022 UTC via an FALCON 9 launch vehicle from the Air Force Eastern Test Range (AFETR). Payload-class satellites include a variety of spacecraft equipped with specific instruments for various scientific and technological missions. These include communications satellites like Starlink; space stations such as the ISS; scientific satellites like the Hubble; Earth observation satellites from companies like Planet Labs, Umbra, and HawkEye 360; GPS; miniature CubeSats for education and research; and military/defense satellites.

Loading next visibility...
Identifier
53595, 2022-104H
Orbit
LEO
Country
Flag of USUS
Related business
Manufacturer
SpaceX/Seattle
Mission
Operational Commercial Communications
Bus & Motor
STARLINK, Unknown motor
Mass
300 kg wet, ~290 kg dry
Launch date (UTC)
2022-08-28 (3 years ago)
Launch vehicle
FALCON 9
Launch site
Air Force Eastern Test Range (AFETR)
Object type
Payload
Rocket body
Debris
Shape & HBR
Box + 1 Pan, 10.1 m
Radar Cross Section
13.562 m², Large (>1 m²)

Expand to show TLE details & history
Last TLE update: 7 hours ago

TLE from 7 hours ago
0 STARLINK-4684
1 53595U 22104H   25349.95550006  .00001884  00000-0  13645-3 0  9992
2 53595  53.2168 260.0303 0001285  80.7943 279.3194 15.08836911183307
Epoch: 2025-12-15T22:55Z
TLE epoch observation values (Epoch: 2025-12-15T22:55:55.205Z)
Latitude
-0.00005°
Longitude
-168.79639°
Altitude
540.506 km
Speed
7.593 km/s
True Right ascension
17h 20m 07s
True Declination
0° 00' 00"
Sunlit
Object was in daylight at epoch
Visualization orbit readout
Latitude
Unknown
Longitude
Unknown
Altitude
Unknown
Speed
Unknown
Apparent Right ascension
Unknown
Apparent Declination
Unknown
Sunlit
N/A
Visualization observer readout
Local Sidereal Time
05:04:49
Azimuth
Unknown
Elevation
Unknown
Doppler factor
Unknown
Orbital elements
Apogee altitude
540.887 km
Perigee altitude
539.109 km
Semi-major axis
6,918.135 km
Eccentricity
0.00013
Inclination
53.2168°
RAAN
260.0303°
Arg. of periapsis
80.7943°
True anomaly
279.30487°
Mean anomaly
279.3194°
Eccentric anomaly
279.31213°
Mean motion
3.7719 °/min
Orbital period
95.44 mins
BSTAR
0.00013645
Loading maneuver chart data...
Computing Atmospheric mass density...
Loading historical data...
Loading historical data...
Loading historical data...
Loading historical data...
Loading historical data...
Loading historical data...
Loading historical data...

Documentation

Showing up to 5 results
|